Location: Hawks Ness
(60.2333°N, 1.1667°W)
Time: 12:55:24
(UTC+00:00)

NOSS 3-1 (A) - Pass Details

Date: 22 October 2019
Orbit: 771 x 1442 km, 63.4° (Epoch: 12 November)

Event Time Altitude Azimuth Distance (km) Brightness Sun altitude
Exits shadow 01:53:08 50° 74° (ENE) 1,286 4.2 -35.6°
Drops below altitude 10° 01:58:23 10° 62° (ENE) 3,019 6.7 -35.2°
Sets 02:01:19 0° 61° (ENE) 4,086 7.6 -35.0°
